Location: Rochester
(43.1610°N, 77.6109°W)
Time: 08:02:03
(UTC-05:00)

N. Korean satellite - Visible Passes

Search period start: 13 December 2018 00:00
Search period end: 23 December 2018 00:00
Orbit: 456 x 511 km, 97.2° (Epoch: 12 December)

Date Brightness Start Highest point End Pass type
(mag) Time Alt. Az. Time Alt. Az. Time Alt. Az.
13 Dec 7.6 06:13:31 10° NNE 06:16:59 49° E 06:20:30 10° S visible
13 Dec 9.1 18:24:16 10° SSW 18:27:01 22° W 18:29:45 10° NW visible
14 Dec 9.1 05:49:22 10° NE 05:52:20 24° E 05:55:20 10° SSE visible
14 Dec 7.6 17:59:02 10° S 18:02:20 46° W 18:05:40 10° NNW visible
15 Dec 10.0 05:25:59 10° ENE 05:27:37 13° E 05:29:14 10° ESE visible
15 Dec 7.0 06:57:51 10° N 07:01:14 41° WNW 07:04:40 10° SW visible
15 Dec 6.3 17:34:20 10° SSE 17:37:45 79° ENE 17:41:12 10° N visible
16 Dec 6.5 06:33:07 10° NNE 06:36:43 88° WNW 06:40:22 10° SSW visible
16 Dec 7.0 17:10:04 10° SE 17:13:14 36° ENE 17:16:25 10° N visible
16 Dec 9.9 18:45:15 10° WSW 18:46:51 13° W 18:48:28 10° WNW visible
17 Dec 7.9 06:08:40 10° NNE 06:12:08 43° E 06:15:37 10° S visible
17 Dec 8.9 18:19:13 10° SSW 18:22:06 25° W 18:25:01 10° NW visible
18 Dec 9.3 05:44:36 10° NE 05:47:27 22° E 05:50:20 10° SSE visible
18 Dec 7.3 17:54:05 10° S 17:57:26 53° W 18:00:49 10° NNW visible
19 Dec 10.1 05:21:31 10° ENE 05:22:41 11° E 05:23:52 10° ESE visible
19 Dec 6.8 06:52:53 10° N 06:56:23 48° WNW 06:59:54 10° SSW visible
19 Dec 6.4 17:29:26 10° SSE 17:32:50 68° ENE 17:36:17 10° N visible
20 Dec 6.7 06:28:12 10° NNE 06:31:50 80° E 06:35:31 10° S visible
20 Dec 9.8 18:39:54 10° SW 18:41:54 15° W 18:43:54 10° WNW visible
21 Dec 8.2 06:03:48 10° NNE 06:07:13 37° E 06:10:40 10° SSE visible
21 Dec 8.6 18:14:07 10° SSW 18:17:09 29° W 18:20:12 10° NW visible
22 Dec 9.5 05:39:48 10° NE 05:42:31 19° E 05:45:14 10° SE visible
22 Dec 7.0 17:49:05 10° S 17:52:28 63° W 17:55:56 10° NNW visible
